Weather History for KCNY - September, 2013

Change the Weather History Date:

Saturday, September 14, 2013

  Actual Average Record
Temperature  
Mean Temperature 66 °F 68 °F  
Max Temperature 72 °F 83 °F 107 °F (1990)
Min Temperature 60 °F 53 °F 36 °F (1928)
Degree Days  
Heating Degree Days 0 1  
Month to date heating degree days 1 8  
Since 1 July heating degree days 1 9  
Cooling Degree Days 1 4  
Month to date cooling degree days 135 82  
Year to date cooling degree days 1602 1248  
Growing Degree Days 16 (Base 50)    
Moisture  
Dew Point 57 °F    
Average Humidity 79    
Maximum Humidity 97    
Minimum Humidity 61    
Precipitation  
Precipitation 0.04 in 0.03 in 0.33 in (2006)
Month to date precipitation 0.76 0.42  
Year to date precipitation 4.66 5.80  
Sea Level Pressure  
Sea Level Pressure 29.86 in    
Wind  
Wind Speed 7 mph (East)    
Max Wind Speed 16 mph    
Max Gust Speed 20 mph    
Visibility 10 miles    
Events Rain , Thunderstorm    
T = Trace of Precipitation, MM = Missing Value Source: NWS Daily Summary

Daily Weather History Graph

Daily Weather History Graph

Search for Another Location

Airport or City:

Trip Planner

Search our weather history database for the weather conditions in past years. The results will help you decide how hot, cold, wet, or windy it might be!

Date:

Astronomy

Sep. 14, 2013 Rise Set
Actual Time 6:59 AM MDT 7:28 PM MDT
Civil Twilight 6:33 AM MDT 7:55 PM MDT
Nautical Twilight 6:01 AM MDT 8:26 PM MDT
Astronomical Twilight 5:29 AM MDT 8:58 PM MDT
Moon 4:10 PM MDT (9/14) 1:37 AM MDT (9/14)
Length of Visible Light 13h 21m
Length of Day
12h 28m
Waxing Gibbous, 73% of the Moon is Illuminated
Sep 14
Waxing Gibbous
Sep 19
Full
Sep 26
Last Quarter
Oct 4
New
Oct 11
First Quarter

Hourly Weather History & Observations

Time (MDT) Temp. Dew Point Humidity Pressure Visibility Wind Dir Wind Speed Gust Speed Precip Events Conditions
12:53 AM 63.0 °F 57.0 °F 81% 29.79 in 10.0 mi NW 9.2 mph - N/A   Mostly Cloudy
1:53 AM 62.1 °F 55.9 °F 80% 29.79 in 10.0 mi North 9.2 mph - N/A   Mostly Cloudy
2:53 AM 62.1 °F 57.0 °F 84% 29.79 in 10.0 mi ESE 4.6 mph - 0.00 in   Overcast
3:53 AM 62.1 °F 57.9 °F 86% 29.79 in 10.0 mi ESE 8.1 mph - N/A   Clear
4:53 AM 61.0 °F 59.0 °F 93% 29.81 in 10.0 mi SSE 4.6 mph - N/A   Overcast
5:53 AM 62.1 °F 57.9 °F 86% 29.80 in 10.0 mi ESE 10.4 mph - 0.00 in Rain Light Rain
6:53 AM 61.0 °F 55.0 °F 81% 29.81 in 10.0 mi SE 9.2 mph - 0.00 in   Scattered Clouds
7:53 AM 62.1 °F 55.9 °F 80% 29.84 in 10.0 mi NE 3.5 mph - N/A   Mostly Cloudy
8:53 AM 64.0 °F 55.9 °F 75% 29.84 in 10.0 mi ESE 4.6 mph - N/A   Overcast
9:53 AM 64.0 °F 57.0 °F 78% 29.86 in 10.0 mi East 12.7 mph - N/A   Overcast
10:53 AM 64.9 °F 57.0 °F 75% 29.86 in 10.0 mi East 11.5 mph - N/A   Overcast
11:13 AM 64.4 °F 55.4 °F 73% 29.99 in 10.0 mi East 10.4 mph - N/A Thunderstorm Overcast
11:28 AM 66.2 °F 57.2 °F 73% 29.99 in 10.0 mi East 10.4 mph - N/A   Overcast
11:53 AM 66.0 °F 57.0 °F 73% 29.86 in 10.0 mi ENE 10.4 mph - 0.00 in Rain Light Rain
12:09 PM 64.4 °F 59.0 °F 83% 29.98 in 5.0 mi ENE 8.1 mph - 0.04 in Rain , Thunderstorm Light Rain
12:24 PM 66.2 °F 60.8 °F 83% 29.98 in 10.0 mi ENE 9.2 mph - 0.04 in   Overcast
12:53 PM 68.0 °F 61.0 °F 78% 29.84 in 10.0 mi ENE 11.5 mph - 0.04 in   Overcast
1:53 PM 68.0 °F 55.9 °F 65% 29.84 in 10.0 mi ENE 11.5 mph - N/A   Clear
2:50 PM 68.0 °F 57.2 °F 68% 29.94 in 10.0 mi East 13.8 mph - 0.00 in Thunderstorm Clear
2:53 PM 68.0 °F 57.0 °F 68% 29.82 in 10.0 mi East 13.8 mph - 0.00 in Thunderstorm Clear
3:08 PM 68.0 °F 57.2 °F 68% 29.94 in 10.0 mi ENE 12.7 mph - N/A   Clear
3:53 PM 71.1 °F 55.0 °F 57% 29.78 in 10.0 mi Variable 6.9 mph - N/A   Clear
4:53 PM 70.0 °F 55.9 °F 61% 29.80 in 10.0 mi East 4.6 mph - N/A   Clear
5:53 PM 70.0 °F 57.0 °F 63% 29.81 in 10.0 mi ENE 5.8 mph - N/A Thunderstorm Clear
6:14 PM 69.8 °F 57.2 °F 64% 29.94 in 10.0 mi East 4.6 mph - N/A   Partly Cloudy
6:53 PM 69.1 °F 57.9 °F 68% 29.81 in 10.0 mi SE 4.6 mph - N/A   Clear
7:53 PM 66.9 °F 57.9 °F 73% 29.83 in 10.0 mi ENE 3.5 mph - N/A   Clear
8:53 PM 64.9 °F 57.0 °F 75% 29.84 in 10.0 mi Calm Calm - N/A   Clear
9:53 PM 64.0 °F 57.9 °F 80% 29.86 in 10.0 mi Calm Calm - N/A   Clear
10:53 PM 62.1 °F 57.0 °F 84% 29.87 in 10.0 mi Calm Calm - N/A   Mostly Cloudy
11:53 PM 62.1 °F 57.9 °F 86% 29.88 in 10.0 mi Calm Calm - N/A   Mostly Cloudy